#timestamp,LO_Frequency,Hit,StdDev 
1704970815.5,286046981.2,N
1704970835.3,286046978.9,N
1704970855.2,286046981.1,N
1704970875.0,286046981.6,N
1704970875.9,286046981.6,N
1704970895.7,286046980.6,N
1704970915.6,286046981.1,N
1704970935.4,286046979.3,N
1704970955.3,286046979.1,N
1704970975.1,286046980.1,N
1704970976.0,286046980.1,N
1704970995.8,286046979.0,Y
1704971015.7,286046995.4,P
1704971035.5,286046994.9,N
1704971055.4,286046997.9,N
1704971075.2,286046998.0,N
1704971095.0,286046995.5,N
1704971095.9,286046995.5,N
1704971115.8,286046993.8,N
1704971135.6,286046996.4,N
1704971155.4,286046994.5,N
1704971175.3,286046992.3,N
1704971195.1,286046991.9,N
1704971215.9,286046994.8,N
1704971235.7,286046993.9,N
1704971255.5,286046993.8,N
1704971275.4,286046993.9,N
1704971295.2,286046994.1,N
1704971315.0,286046991.7,N
1704971315.9,286046991.7,N
1704971335.8,286046992.5,N
1704971355.6,286046992.9,N
1704971375.5,286046992.6,N
1704971395.3,286046993.1,N
1704971415.1,286046990.8,Y
1704971435.9,286046997.6,P
1704971455.7,286046997.7,N
1704971475.5,286046997.4,N
1704971495.4,286046995.0,Y
1704971515.2,286047000.3,P
1704971535.1,286047001.0,N
1704971536.0,286047001.0,N
1704971555.8,286047000.8,N
1704971575.6,286047000.8,N
1704971595.5,286047000.2,N
1704971615.3,286047002.8,N
1704971635.2,286047000.2,N
1704971655.9,286047000.5,N
1704971675.7,286047000.2,N
1704971695.6,286047000.5,N
1704971715.4,286046999.9,N
1704971735.2,286047002.8,N
1704971755.1,286047001.6,N
1704971756.0,286047001.6,N
1704971775.8,286047001.6,N
1704971795.7,286047002.1,N
1704971815.5,286047004.4,Y
1704971835.3,286047002.5,P
1704971855.2,286047002.5,N
1704971875.0,286047001.3,N
1704971875.9,286047001.3,N
1704971895.8,286047003.6,Y
1704971915.6,286046999.7,P
1704971935.4,286047002.8,N
1704971955.3,286047002.3,N
1704971975.1,286047004.1,Y
1704971995.8,286047002.6,P
1704972015.7,286047000.2,N
1704972035.5,286047002.6,N
1704972055.4,286046999.9,N
1704972075.2,286047000.0,N
1704972095.0,286047002.8,N
1704972095.9,286047002.8,N
1704972115.8,286047002.7,N
1704972135.6,286047000.2,N
1704972155.4,286047000.2,N
1704972175.3,286047002.7,N
1704972195.1,286047002.4,N
1704972215.9,286047000.1,N
1704972235.7,286047002.4,N
1704972255.5,286046999.7,N
1704972275.4,286047002.8,N
1704972295.2,286047000.1,N
1704972315.0,286047001.6,N
1704972315.9,286047001.6,N
1704972335.8,286046999.7,N
1704972355.6,286047002.1,N
1704972375.5,286047002.7,N
1704972395.3,286047002.6,N
1704972415.1,286047002.0,N
1704972435.9,286047001.8,N
1704972455.7,286047003.9,Y
1704972475.6,286047002.0,P
1704972495.4,286047001.5,P
1704972515.2,286047004.0,P
1704972535.1,286047004.3,Y
1704972536.0,286047004.3,P
1704972555.8,286047001.9,N
1704972575.6,286047001.8,N
1704972595.5,286047003.9,Y
1704972615.3,286047002.7,P
1704972635.2,286047002.6,P
1704972655.9,286047001.7,P
1704972675.7,286047001.3,Y
1704972695.6,286047000.1,P
1704972715.4,286047002.0,N
1704972735.3,286047003.9,P
1704972755.1,286047003.1,N
1704972756.0,286047003.1,N
1704972775.8,286047003.3,N
1704972795.7,286047005.5,Y
1704972815.5,286047004.4,P
1704972835.3,286047001.8,N
1704972855.2,286047001.7,N
1704972875.0,286047004.2,Y
1704972875.9,286047004.2,P
1704972895.8,286047001.6,N
1704972915.6,286047002.0,N
1704972935.4,286047001.6,N
1704972955.3,286047004.0,Y
1704972975.1,286047000.1,P
1704972995.9,286047002.1,N
1704973015.7,286047004.3,P
1704973035.5,286047004.0,N
1704973055.4,286047004.2,N
1704973075.2,286047003.7,N
1704973095.0,286047005.5,Y
1704973095.9,286047005.5,P
1704973115.8,286047001.4,N
1704973135.6,286047003.8,N
1704973155.5,286047003.0,N
1704973175.3,286047005.5,Y
1704973195.1,286047001.5,P
1704973215.9,286047004.1,P
1704973235.7,286047004.2,P
1704973255.5,286047003.0,N
1704973275.4,286047005.1,Y
1704973295.2,286047003.9,P
1704973315.1,286047003.1,P
1704973316.0,286047003.1,P
1704973335.8,286047005.9,Y
1704973355.6,286047001.9,P
1704973375.5,286047004.0,P
1704973395.3,286047003.8,P
1704973415.2,286047002.9,Y
1704973435.9,286047002.3,P
1704973455.7,286047002.5,P
1704973475.6,286047003.7,P
1704973495.4,286047003.9,Y
1704973515.3,286047000.2,P
1704973535.1,286047000.1,N
1704973536.0,286047000.1,N
1704973555.8,286046999.9,N
1704973575.7,286046999.8,N
1704973595.5,286047002.8,N
1704973615.4,286047001.4,N
1704973635.2,286047001.6,N
1704973655.0,286047001.3,N
1704973655.9,286047001.3,N
1704973675.8,286047003.8,Y
1704973695.6,286047001.7,P
1704973715.4,286047001.3,P
1704973735.3,286047001.5,P
1704973755.1,286047002.3,Y
1704973775.9,286047000.0,P
1704973795.7,286047002.6,P
1704973815.5,286047002.6,N
1704973835.4,286047001.9,N
1704973855.2,286047002.6,N
1704973875.1,286047000.3,N
1704973876.0,286047000.3,N
1704973895.8,286047002.8,N
1704973915.6,286047002.6,N
1704973935.5,286047002.1,N
1704973955.3,286047004.4,Y
1704973975.2,286047000.1,P
1704973995.9,286047002.7,P
1704974015.7,286047002.8,N
1704974035.6,286046999.9,N
1704974055.4,286047000.4,N
1704974075.2,286047000.1,N
1704974095.1,286047001.1,N
1704974096.0,286047001.1,N
1704974115.8,286047000.5,N
1704974135.7,286047000.2,N
1704974155.5,286047000.3,N
1704974175.3,286047000.6,N
1704974195.2,286047000.5,N
1704974215.0,286047000.4,N
1704974215.9,286047000.4,N
1704974235.7,286046999.9,N
1704974255.6,286046999.9,N
1704974275.4,286047000.1,N
1704974295.3,286047000.1,N
1704974315.1,286046999.9,N
1704974316.0,286046999.9,N
1704974335.8,286047000.4,N
1704974355.7,286047000.5,N
1704974375.5,286047000.9,N
1704974395.4,286047000.4,N
